Mobridge, SD

9:12 PM CST on December 14, 2019 (GMT -0600)
Mobridge Municipal

Weather History for KMBG - November, 2019

Change the Weather History Date:

Saturday, November 16, 2019

  Actual Average Record
Temperature  
Mean Temperature 38 °F 32 °F  
Max Temperature 50 °F 42 °F 69 °F (1953)
Min Temperature 26 °F 21 °F -10 °F (1959)
Degree Days  
Heating Degree Days 27    
Month to date heating degree days 583  
Since 1 July heating degree days 1434  
Cooling Degree Days 0    
Month to date cooling degree days 0  
Year to date cooling degree days 648  
Moisture  
Dew Point 32 °F    
Average Humidity 77    
Maximum Humidity 92    
Minimum Humidity 64    
Precipitation  
Precipitation 0.02 in 0.01 in 0.39 in (1971)
Month to date precipitation 0.40 0.39  
Year to date precipitation 27.91 17.34  
Snow  
Snow 0.00 in - 3.00 in (1911)
Month to date snowfall 3.8  
Since 1 July snowfall 9.4  
Snow Depth 0.00 in    
Sea Level Pressure  
Sea Level Pressure 29.94 in    
Wind  
Wind Speed 5 mph ()    
Max Wind Speed 24 mph    
Max Gust Speed 33 mph    
Visibility 8.7 miles    
Events Rain    
T = Trace of Precipitation, MM = Missing Value Source: Averaged Metar Reports

Daily Weather History Graph

Daily Weather History Graph

Search for Another Location

Airport or City:

Astronomy

Nov. 16, 2019 Rise Set
Actual Time 7:41 AM CST 5:10 PM CST
Civil Twilight 7:09 AM CST 5:42 PM CST
Nautical Twilight 6:33 AM CST 6:18 PM CST
Astronomical Twilight 5:58 AM CST 6:53 PM CST
Moon 8:39 PM CST (11/16) 11:43 AM CST (11/16)
Length of Visible Light 10h 32m
Length of Day
9h 28m
Waning Gibbous, 82% of the Moon is Illuminated
Nov 16
Waning Gibbous
Nov 19
Last Quarter
Nov 26
New
Dec 4
First Quarter
Dec 11
Full

Hourly Weather History & Observations

Time (CST) Temp. Windchill Dew Point Humidity Pressure Visibility Wind Dir Wind Speed Gust Speed Precip Events Conditions
12:52 AM 30.9 °F 27.5 °F 28.0 °F 89% 29.91 in 9.0 mi SE 3.5 mph - N/A   Clear
2:52 AM 28.0 °F - 24.1 °F 85% 29.88 in 8.0 mi Calm Calm - N/A   Clear
3:52 AM 28.9 °F 22.8 °F 25.0 °F 85% 29.86 in 9.0 mi East 5.8 mph - N/A   Clear
4:52 AM 27.0 °F - 23.0 °F 85% 29.87 in 8.0 mi Calm Calm - N/A   Clear
5:52 AM 27.0 °F - 24.1 °F 89% 29.89 in 2.5 mi Calm Calm - N/A   Clear
6:16 AM 28.9 °F 23.9 °F 25.0 °F 85% 29.82 in 4.0 mi ESE 4.6 mph - N/A   Clear
6:52 AM 28.9 °F - 26.1 °F 89% 29.88 in 7.0 mi Calm Calm - N/A   Clear
7:52 AM 30.0 °F - 27.0 °F 88% 29.90 in 5.0 mi Calm Calm - N/A   Clear
8:52 AM 32.0 °F 28.7 °F 28.9 °F 88% 29.91 in 4.0 mi NNW 3.5 mph - N/A   Mostly Cloudy
9:52 AM 35.1 °F - 30.9 °F 85% 29.92 in 10.0 mi Calm Calm - N/A   Partly Cloudy
10:52 AM 39.0 °F 34.0 °F 33.1 °F 79% 29.92 in 10.0 mi NW 6.9 mph - N/A   Overcast
11:52 AM 42.1 °F 35.2 °F 36.0 °F 79% 29.91 in 10.0 mi NNW 12.7 mph - 0.02 in Rain Light Rain
12:52 PM 46.0 °F 41.0 °F 37.0 °F 71% 29.91 in 10.0 mi NW 10.4 mph - 0.00 in   Overcast
1:52 PM 48.9 °F - 39.9 °F 71% 29.91 in 10.0 mi NW 8.1 mph - N/A   Mostly Cloudy
2:52 PM 50.0 °F - 41.0 °F 71% 29.91 in 10.0 mi NNW 8.1 mph - N/A   Clear
3:52 PM 48.9 °F - 37.0 °F 64% 29.94 in 10.0 mi NW 17.3 mph 28.8 mph N/A   Clear
4:29 PM 46.9 °F - 37.0 °F 68% 29.93 in 10.0 mi NW 24.2 mph 33.4 mph N/A   Mostly Cloudy
4:52 PM 46.0 °F 39.3 °F 36.0 °F 68% 29.99 in 10.0 mi NW 16.1 mph 27.6 mph N/A   Overcast
5:52 PM 45.0 °F 39.7 °F 35.1 °F 68% 30.01 in 10.0 mi NW 10.4 mph - N/A   Overcast
6:52 PM 44.1 °F 40.1 °F 35.1 °F 71% 30.03 in 10.0 mi WNW 6.9 mph - N/A   Overcast
7:52 PM 45.0 °F 40.6 °F 35.1 °F 68% 30.04 in 10.0 mi NW 8.1 mph - N/A   Overcast
8:52 PM 44.1 °F 40.1 °F 35.1 °F 71% 30.04 in 10.0 mi NW 6.9 mph - N/A   Overcast
9:52 PM 43.0 °F 37.7 °F 34.0 °F 71% 30.04 in 10.0 mi WNW 9.2 mph - N/A   Overcast
10:52 PM 42.1 °F 37.1 °F 34.0 °F 73% 30.04 in 10.0 mi WNW 8.1 mph - N/A   Overcast
11:52 PM 41.0 °F 35.8 °F 33.1 °F 73% 30.04 in 10.0 mi NW 8.1 mph - N/A   Overcast